GFSNW_850_dewp_036.txt.gz
Dewpoint
-8 -7 -7 -11 -25 -23 -3 -3 4 0 -0 4 3 4 3 3 2 2 -1 -1 0 2 2 3 2 1 1 -1 -1 0 -1 2 5 3 0 -1 -0 1 -2 1 3 1 1 -4
-6 -7 -7 -3 -24 -22 -1 -1 -2 -0 -0 3 3 2 2 2 2 1 -0 -1 -1 -1 1 2 1 1 -1 -1 -1 -0 -1 2 5 4 2 1 2 1 -1 -2 0 4 0 -4
-3 -5 -5 -3 -21 -25 -1 -1 3 1 1 1 2 2 2 2 2 1 -1 -1 -1 -1 -0 -1 1 0 1 -1 -1 -1 -2 -0 2 0 3 2 4 2 0 0 3 1 -1 -3
-1 -2 -3 -4 -20 -16 -0 -0 1 1 3 2 1 2 2 3 3 2 -1 -1 -1 -1 0 0 0 0 0 -0 1 -0 -0 5 2 0 0 2 2 2 1 3 1 2 -2 -2
-1 -2 -3 -4 -14 -16 -1 1 0 -0 0 1 0 0 2 3 3 2 0 -0 -1 -1 0 -2 1 0 0 0 1 -0 -0 5 3 3 1 1 3 1 1 1 1 0 -1 -0
-1 -1 -2 -2 -7 -17 -5 -1 -1 0 -1 1 1 1 1 2 2 2 2 -2 1 2 1 1 -0 -1 -1 -1 0 1 1 3 3 4 1 1 3 2 1 1 0 0 2 -1
-3 -2 -1 -2 -3 -8 -11 -5 -2 -0 -0 -0 1 0 0 1 2 3 2 1 1 2 -0 -0 -1 -1 -0 -0 -0 -1 1 3 3 4 2 5 0 -0 -0 0 -1 -1 -1 -1
-3 -2 -1 -1 -1 -3 -8 -8 -9 -1 -3 -2 -3 -1 0 1 1 2 3 3 2 1 2 1 2 2 1 1 1 -0 -1 1 4 4 3 0 -2 0 1 2 4 -1 -1 -1
-2 -2 -2 -1 -1 -1 -4 -6 -7 -10 -3 -5 -1 -2 -2 1 2 2 3 3 3 2 2 3 3 4 1 3 3 2 1 -0 2 3 4 4 0 2 0 1 5 1 -0 -0
-1 -1 -2 -2 -1 -1 -2 -4 -5 -5 -5 -9 -4 -3 -1 1 2 2 1 3 4 3 3 3 1 2 1 4 3 4 4 4 4 3 2 1 -1 2 2 7 5 1 2 2
-2 -1 -1 -1 -1 -1 -2 -2 -3 -6 -4 -6 -6 -8 -5 -5 -8 2 1 3 3 3 4 3 3 1 1 2 1 2 2 3 5 3 4 3 -1 2 3 2 1 1 2 1
-2 -2 -1 -1 -1 -1 -1 -2 -4 -4 -3 -5 -6 -4 -4 -5 -7 -7 -7 -1 1 2 4 3 2 3 2 2 4 1 3 0 1 1 0 -2 0 2 2 0 1 1 1 1
-1 -2 -1 -1 -1 -1 -1 -1 -2 -2 -2 -4 -3 -3 -5 -6 -5 -4 -6 -6 -0 1 0 2 2 4 2 3 3 3 1 0 2 2 -0 -1 -0 1 1 1 1 1 1 1
-1 -2 -1 -2 -2 -1 -1 -1 -2 -4 -3 -3 -5 -7 -8 -8 -8 -8 -6 -6 -4 -3 -2 2 3 3 1 2 1 2 1 1 1 2 1 1 1 1 1 2 2 2 2 2
-1 -1 -1 -2 -1 -2 -2 -5 -3 -3 -3 -4 -5 -4 -6 -7 -6 -6 -7 -7 -5 -5 -4 -0 4 2 2 1 1 2 1 2 3 3 1 0 1 2 2 2 2 2 2 2
-1 -1 -1 -1 -2 -7 -4 -4 -5 -5 -4 -3 -4 -6 -7 -7 -4 -7 -5 -5 -4 -4 -4 -2 0 2 2 4 3 0 0 1 1 1 1 2 2 1 1 2 2 1 0 2
-1 -2 -2 -2 -10 -4 -3 -4 -5 -4 -4 -4 -5 -5 -7 -3 -4 -5 -3 -3 -3 -4 -4 -3 0 3 2 2 2 -0 0 1 1 2 3 1 1 2 2 1 -1 -1 -2 2
-2 -2 -2 -9 -3 -3 -3 -4 -4 -4 -3 -4 -4 -4 -4 -3 -3 -3 -4 -4 -4 -3 -1 -1 -0 3 3 4 1 1 1 1 1 1 1 0 -0 -1 -2 -2 -1 -1 -1 1
-3 -3 -7 -3 -3 -3 -4 -4 -3 -2 -3 -4 -3 -3 -1 -2 -1 -1 -3 -4 -4 -3 1 2 3 4 5 2 1 1 -0 -0 -0 -0 -0 -1 -2 -1 0 0 -0 -0 -0 0
-4 -5 -5 -3 -4 -4 -4 -2 -3 -3 -3 -3 -3 -3 -2 -1 0 0 -0 -1 -1 2 2 3 3 4 1 0 1 0 -0 -0 -2 -2 -2 -1 0 1 1 1 1 0 -0 1
-3 -3 -7 -6 -5 -5 -3 -2 -2 -2 -2 -3 -3 -3 -1 -0 1 2 1 2 2 4 3 4 4 3 -0 -2 -2 -2 -2 -2 -3 -2 -0 0 0 1 1 1 0 0 1 0
-3 -3 -4 -4 -4 -2 -2 -2 -1 -1 0 -0 -1 -0 -1 -0 2 3 2 3 3 4 3 4 4 1 -2 -2 -2 -3 -3 -3 -2 -0 -0 0 0 0 0 1 1 -0 0 1
-6 -5 -4 -3 -3 -1 -1 -0 0 -0 -1 -1 -2 -1 -0 1 2 2 2 3 4 2 4 4 2 -2 -3 -3 -3 -3 -3 -2 -1 -1 0 1 1 1 1 1 1 2 2 1
-8 -7 -7 -3 -2 -2 -1 -1 -2 -2 -2 -2 -2 -2 -0 1 1 2 3 3 2 4 4 2 -0 -3 -3 -3 -3 -3 -3 -3 -2 -2 -2 -1 -0 -1 -1 -0 1 1 1 2
-8 -8 -7 -5 -4 -4 -4 -4 -3 -3 -2 -2 -2 -2 -1 1 1 2 2 3 3 2 1 0 -2 -3 -3 -3 -3 -4 -4 -4 -4 -4 -4 -4 -3 -3 -3 -2 -2 0 1 1
-8 -7 -6 -7 -5 -5 -6 -6 -4 -3 -3 -3 -2 -0 1 2 2 3 3 2 2 1 -0 -2 -2 -3 -4 -6 -8 -8 -9 -12 -13 -11 -11 -10 -9 -7 -5 -4 -3 -3 -1 0
-8 -8 -8 -7 -7 -7 -7 -6 -5 -4 -4 -2 -2 0 1 0 2 2 1 2 1 -2 -2 -2 -2 -3 -5 -6 -10 -12 -16 -18 -19 -19 -18 -16 -13 -10 -8 -7 -5 -4 -3 -3

GFSNW_850_dewp_039.txt.gz
Dewpoint
-4 -6 -9 -6 -6 -19 -22 1 5 0 0 4 2 4 2 2 1 1 -2 -1 -0 -0 0 1 1 0 1 -1 -2 -0 -0 2 5 4 0 -1 0 1 1 3 4 0 2 -2
-5 -6 -6 -4 -13 -23 -13 2 1 -0 0 4 3 1 1 2 1 0 -1 -1 -1 -1 0 2 1 0 -1 -1 -1 -0 -1 3 5 4 2 1 2 1 0 -1 1 5 2 -2
-4 -4 -3 -4 -14 -24 -5 1 4 2 2 2 1 1 0 2 2 1 -1 -2 -2 -1 -1 -2 1 1 0 -1 -1 -1 -2 0 3 3 5 2 4 2 1 1 5 2 -1 -3
-3 -1 -3 -3 -15 -18 -2 1 1 1 4 1 1 2 2 2 2 1 -1 -0 -1 -2 -0 -1 -1 -0 0 -1 1 -1 -0 6 3 -0 -0 2 2 2 1 3 2 3 -1 -4
-3 -2 -2 -3 -15 -15 -1 1 1 1 -0 1 1 1 2 2 2 2 0 -0 -1 -2 -1 -2 -1 -1 -1 -0 -0 -0 -0 4 3 4 1 1 2 1 0 1 1 0 -1 -1
-3 -3 -1 -2 -5 -18 -5 -4 -0 1 -1 0 1 1 1 2 2 1 1 -1 -1 -0 -1 0 -1 -2 -3 -2 -0 -0 1 4 5 4 1 1 3 2 1 0 -0 -0 1 -2
-3 -2 -2 -2 -2 -4 -4 -10 -3 -1 -2 -1 1 0 0 1 1 3 2 -1 0 0 0 -0 -1 -1 -1 -1 -1 -2 1 3 3 5 2 5 2 -1 -1 -0 -1 -1 -2 -2
-1 -2 -1 -2 -1 -2 -3 -7 -9 -4 -5 -8 -7 -2 -1 0 1 2 2 2 3 0 1 1 2 2 1 0 -1 -1 -2 -0 3 4 3 0 -2 -1 1 2 3 -1 -1 -2
-2 -2 -2 -2 -1 -1 -2 -3 -4 -8 -5 -5 -3 -5 -6 -0 1 1 2 4 4 3 2 2 2 3 0 3 2 0 -1 -1 1 2 3 3 1 2 -1 -0 5 1 -1 -1
-2 -1 -2 -2 -1 -2 -1 -2 -4 -4 -3 -6 -6 -7 -3 -2 1 2 1 3 4 3 3 3 2 1 0 2 2 3 3 2 4 2 2 0 -3 2 1 6 5 2 1 2
-2 -2 -1 -1 -2 -1 -1 -2 -4 -4 -4 -5 -5 -6 -7 -7 -8 -1 -0 2 4 4 4 4 2 0 0 0 -0 1 2 3 3 2 3 3 -1 3 4 2 2 2 2 2
-1 -2 -1 -1 -1 -1 -1 -1 -1 -2 -3 -4 -4 -4 -5 -5 -7 -6 -6 -2 -1 2 4 3 1 -0 -1 0 2 -1 2 -1 -0 -0 0 -2 -1 -0 2 1 1 2 2 2
-2 -2 -2 -2 -2 -2 -1 -1 -2 -2 -2 -4 -3 -3 -3 -5 -5 -4 -5 -6 -3 0 -1 1 3 3 -0 1 0 1 -0 -2 0 -0 -2 -2 -1 0 1 1 2 2 1 1
-1 -2 -1 -1 -2 -2 -1 -1 -2 -2 -3 -3 -5 -5 -5 -7 -8 -6 -4 -5 -5 -4 -3 -2 3 4 -0 0 -1 0 -0 0 0 1 -0 1 0 -0 1 1 2 1 1 1
-2 -1 -2 -2 -2 -1 -3 -5 -4 -3 -3 -3 -4 -4 -6 -5 -5 -5 -5 -4 -5 -4 -5 -2 2 2 2 1 1 1 1 1 2 1 -1 -1 -1 1 2 2 2 1 1 2
-2 -2 -2 -2 -2 -2 -4 -3 -6 -6 -5 -4 -4 -4 -5 -8 -4 -5 -4 -4 -5 -5 -5 -6 -4 -1 3 3 1 -3 -1 -0 0 -0 1 1 2 2 2 1 1 2 1 -0
-2 -2 -2 -2 -7 -4 -3 -3 -4 -5 -4 -4 -4 -4 -5 -3 -3 -3 -3 -4 -3 -4 -4 -6 -5 -1 -1 4 1 -2 -1 -0 1 2 2 2 1 1 1 2 1 -1 -1 -2
-2 -2 -3 -5 -4 -3 -3 -4 -4 -4 -3 -4 -4 -3 -3 -2 -3 -4 -4 -5 -4 -3 -4 -6 -6 -5 0 4 -0 0 0 1 1 1 1 1 1 0 -1 -1 -1 -1 -1 -1
-2 -4 -4 -3 -3 -3 -3 -4 -3 -3 -3 -3 -3 -2 -0 -1 -1 -2 -4 -5 -5 -7 -3 -4 -2 -2 2 4 1 1 1 1 1 0 1 0 -0 -1 -1 1 1 0 0 -0
-4 -4 -5 -2 -4 -6 -6 -2 -3 -3 -3 -4 -3 -2 -1 -1 -1 -1 -2 -3 -1 0 -2 -0 2 3 0 1 0 1 -0 -0 -0 -1 -1 -2 -1 0 0 0 1 1 0 0
-3 -3 -3 -6 -4 -4 -3 -2 -2 -2 -2 -2 -2 -2 -1 -1 0 2 -1 2 1 2 3 2 3 3 1 -1 -1 -1 -1 -1 -1 -2 -1 1 1 1 1 1 1 1 -0 -0
-3 -3 -4 -4 -3 -2 -1 -0 -0 -0 1 -0 -1 -2 -1 -1 -0 1 1 2 2 5 2 3 4 1 -2 -2 -2 -2 -2 -2 -2 -0 2 2 2 1 1 1 1 1 1 -0
-6 -5 -4 -2 -2 -1 -1 -1 -0 -1 -1 -1 -2 -3 -2 -0 0 1 2 3 4 2 4 3 2 -1 -2 -3 -3 -3 -3 -3 -2 -0 1 1 1 1 1 1 1 1 1 1
-6 -6 -6 -2 -1 -2 -2 -2 -2 -2 -2 -2 -2 -3 -1 0 0 2 3 3 3 4 4 3 1 -1 -3 -3 -3 -3 -3 -2 -2 -1 -1 -1 -1 -2 -3 -2 -2 -1 1 1
-6 -6 -5 -3 -3 -4 -5 -4 -4 -3 -3 -2 -2 -2 -2 0 1 2 2 3 3 2 3 2 0 -2 -3 -3 -3 -3 -3 -3 -3 -4 -4 -5 -5 -5 -5 -5 -4 -3 -2 -0
-7 -6 -4 -5 -4 -3 -4 -5 -3 -4 -4 -3 -2 -1 -0 1 2 3 4 4 2 2 2 -1 -2 -2 -3 -4 -4 -6 -7 -9 -11 -11 -12 -12 -12 -12 -10 -9 -7 -5 -4 -3
-7 -5 -7 -5 -5 -5 -5 -6 -5 -4 -3 -2 -2 -0 1 -1 2 3 2 4 2 0 -0 -2 -2 -3 -4 -7 -9 -10 -14 -17 -18 -18 -19 -18 -16 -16 -17 -17 -13 -8 -6 -4

GFSNW_850_dewp_045.txt.gz
Dewpoint
-3 -4 -4 -5 -17 -21 -16 2 2 3 1 4 4 2 3 1 1 0 -0 -1 -0 1 -0 1 1 2 1 -0 -0 2 0 3 6 5 4 4 4 5 3 4 4 1 2 -0
-4 -4 -4 -5 -14 -6 -2 1 1 3 2 5 2 1 2 1 1 0 0 -1 -1 -1 -0 1 1 1 -1 -1 -0 0 1 3 5 6 2 3 6 4 5 3 2 3 3 -1
-4 -4 -4 -6 -14 -4 1 2 1 1 3 2 2 2 1 2 1 1 -1 -1 -2 -1 -0 -2 1 2 -0 -1 -0 -1 -1 2 1 3 2 3 3 4 4 4 4 4 3 -2
-3 -4 -4 -5 -11 -9 -3 -1 0 0 2 1 1 1 2 2 3 1 0 -0 -1 -0 -0 -1 1 1 1 -0 -1 -1 1 1 -1 1 2 2 3 3 3 5 2 4 2 -2
-3 -3 -4 -5 -6 -11 -16 -1 -1 -1 -0 -0 1 1 3 3 3 2 2 0 -0 -1 1 0 -0 1 0 0 0 -0 1 2 1 -0 1 2 2 2 2 2 1 1 1 2
-3 -4 -4 -4 -4 -6 -6 -6 -4 -0 -1 -2 1 1 1 2 2 2 2 1 1 -1 2 1 -0 -2 -2 -2 0 1 2 1 -0 1 1 1 2 1 1 1 1 1 3 -0
-3 -4 -4 -4 -4 -3 -4 -4 -4 -3 -3 -8 -4 -5 -5 -3 -1 2 1 2 2 1 -0 -1 -1 -2 -2 -1 -1 -1 2 2 1 1 1 3 -2 -1 -1 -0 -0 -0 -0 -1
-3 -3 -3 -3 -3 -3 -3 -4 -4 -3 -4 -6 -8 -10 -8 -3 -0 1 2 4 3 1 1 1 2 2 1 0 -1 -1 -0 2 2 2 3 0 1 1 1 1 1 -1 -1 -2
-3 -3 -2 -2 -2 -3 -3 -2 -3 -3 -3 -5 -7 -7 -5 -3 -1 2 2 2 3 2 3 3 4 4 2 3 2 -1 -1 -0 1 4 3 4 3 -1 -1 -0 5 0 -2 -2
-2 -2 -3 -2 -2 -2 -3 -2 -3 -3 -3 -3 -4 -5 -5 -5 -6 -3 1 -3 1 3 3 4 3 2 -0 3 3 3 3 2 3 4 4 1 -2 -0 -0 6 4 1 -1 -2
-1 -2 -2 -2 -2 -3 -2 -1 -2 -2 -2 -3 -3 -4 -4 -6 -7 -5 -5 -1 1 3 4 4 3 2 0 0 -0 2 2 2 3 3 3 3 1 2 4 2 2 2 1 0
-2 -2 -2 -3 -3 -2 -2 -2 -1 -2 -2 -4 -5 -4 -3 -3 -5 -5 -6 -4 -4 0 3 3 3 3 -0 -0 2 -1 2 0 2 1 1 -3 2 1 2 2 2 2 1 2
-1 -2 -2 -3 -3 -2 -2 -1 -2 -4 -3 -4 -5 -5 -5 -5 -5 -5 -6 -3 -1 -1 -3 -1 2 5 3 2 1 -0 -1 -2 -0 -0 -2 -2 -2 0 1 1 2 2 1 1
-2 -3 -3 -2 -2 -2 -2 -2 -4 -2 -3 -3 -5 -4 -5 -6 -4 -4 -4 -3 -2 -2 -3 -3 -1 2 2 3 2 0 -0 -1 -0 -0 -1 -0 -0 0 1 1 1 1 2 1
-3 -3 -2 -1 -2 -3 -5 -5 -7 -4 -3 -3 -5 -4 -5 -5 -5 -6 -5 -3 -3 -4 -4 -3 -2 -1 0 0 2 1 -0 0 1 1 -1 -1 -2 -1 -0 1 1 2 2 1
-3 -2 -2 -3 -4 -5 -5 -3 -5 -4 -4 -4 -3 -5 -4 -6 -5 -5 -5 -4 -4 -5 -4 -4 -5 -5 -3 -1 0 -1 -1 -1 0 -1 0 -0 -1 -0 1 1 2 2 1 1
-3 -2 -3 -4 -5 -5 -4 -4 -4 -4 -3 -4 -4 -4 -4 -4 -4 -4 -4 -4 -4 -4 -4 -4 -6 -6 -3 -1 -2 -5 -4 -1 -1 1 1 2 2 2 2 2 2 1 1 -0
-3 -4 -4 -5 -5 -5 -4 -6 -5 -3 -3 -5 -6 -5 -3 -2 -2 -3 -5 -5 -4 -4 -4 -4 -5 -6 -6 -3 -7 -7 -6 0 1 2 1 1 2 1 1 0 0 -0 -0 -0
-5 -5 -4 -5 -5 -4 -5 -4 -4 -4 -3 -3 -3 -2 -2 -1 -2 -1 -3 -4 -3 -5 -3 -4 -5 -4 -3 -5 -5 -7 -8 0 1 0 1 1 1 0 0 -0 -0 -0 0 1
-4 -3 -4 -3 -5 -4 -4 -2 -2 -3 -4 -4 -4 -3 -2 -2 -2 -1 -2 -3 -3 -4 -4 -5 -3 -3 -6 -6 -6 -2 -2 -2 0 0 0 -0 -0 -1 -0 0 1 1 1 1
-5 -4 -6 -5 -4 -3 -2 -2 -3 -2 -2 -2 -3 -2 -2 -3 -1 -1 -1 -1 -1 -3 -1 -2 0 3 0 0 -2 1 1 1 1 -1 -1 -0 0 1 1 1 1 1 1 1
-9 -9 -5 -4 -2 -2 -5 -7 -2 -2 -1 -1 -1 -2 -3 -2 -2 -1 -1 1 1 0 -1 1 3 2 -0 -1 -1 -2 -2 1 0 -0 1 2 1 1 1 1 1 1 1 1
-7 -10 -6 -3 -4 -8 -8 -7 -6 -6 -2 -2 -2 -3 -3 -3 -2 -1 0 2 2 1 3 3 2 -0 -1 -2 -1 -1 -1 -0 0 0 0 -0 0 -1 -1 -2 -2 -2 -1 -0
-6 -9 -12 -8 -8 -8 -7 -6 -7 -3 -3 -6 -3 -2 -2 -3 -1 1 2 2 2 2 3 3 0 -1 -2 -2 -2 -2 -2 -1 -1 -1 -1 -2 -2 -4 -6 -7 -8 -7 -6 -5
-6 -7 -10 -9 -4 -2 -4 -5 -7 -7 -7 -4 -4 -3 -2 -2 -1 0 1 2 2 2 1 1 -0 -1 -2 -3 -3 -2 -2 -2 -2 -2 -1 -3 -10 -11 -12 -13 -13 -11 -9 -8
-6 -6 -8 -5 -6 -5 -4 -5 -6 -5 -6 -5 -3 -3 -1 -1 -0 0 2 3 0 1 0 -0 -1 -2 -2 -2 -3 -4 -6 -7 -8 -8 -8 -11 -15 -17 -20 -22 -22 -21 -16 -13
-6 -6 -6 -4 -4 -6 -6 -5 -6 -6 -7 -7 -5 -4 -4 -4 -2 -0 0 -0 -0 0 -0 -1 -1 -1 -2 -3 -5 -7 -13 -15 -8 -4 -7 -5 -5 -12 -22 -24 -24 -23 -21 -19

GFSNW_850_dewp_048.txt.gz
Dewpoint
-5 -5 -5 -10 -16 -12 -4 1 3 3 1 4 4 1 2 1 1 0 0 -1 -0 1 -0 0 2 3 2 3 2 3 1 3 5 5 4 4 5 5 3 6 4 2 2 0
-5 -5 -6 -10 -15 -8 -1 1 2 3 3 5 2 1 2 1 1 1 0 -1 -1 -1 -0 2 1 1 -1 1 -0 2 1 3 5 4 3 3 6 6 4 3 2 2 2 0
-5 -5 -5 -7 -15 -18 -1 1 -1 1 3 3 2 2 1 2 1 1 -1 -1 -2 -1 -0 -2 2 1 0 -1 -1 -1 -0 1 1 3 2 3 5 6 4 5 4 4 2 -0
-5 -5 -6 -6 -8 -13 -3 -2 0 -1 2 1 0 1 3 2 3 1 -0 -0 -1 -0 0 -1 2 1 1 -0 -1 -1 -1 1 -0 0 2 2 2 3 5 6 4 5 3 1
-4 -5 -5 -6 -6 -8 -10 -4 -3 -1 -1 -1 -0 1 2 3 3 2 2 0 1 -1 2 0 0 1 1 0 -0 -0 -0 1 -0 -1 -0 2 2 2 3 4 4 3 1 1
-4 -4 -4 -5 -5 -6 -5 -5 -3 -0 -2 -7 -1 -2 -2 -0 1 3 2 2 1 2 2 1 0 -1 -2 -1 0 1 1 0 -1 -0 1 1 1 1 1 2 2 3 3 0
-3 -3 -3 -3 -4 -5 -5 -5 -5 -6 -5 -6 -5 -9 -7 -4 -3 1 1 3 1 2 1 -1 -1 -2 -1 -1 -1 -0 1 0 -1 0 0 2 -1 -2 -1 -0 -0 0 0 -1
-3 -3 -2 -2 -3 -4 -4 -4 -5 -4 -4 -5 -7 -7 -6 -4 -2 1 1 3 3 2 1 1 1 1 0 -0 -1 -1 -0 2 2 1 1 0 -1 1 1 0 0 -2 -0 -1
-2 -2 -2 -2 -3 -4 -4 -4 -4 -4 -3 -4 -4 -5 -5 -4 -4 -1 2 2 3 3 3 3 3 3 1 2 2 -1 -1 -0 1 3 2 4 -0 0 -1 -1 4 1 -2 -1
-1 -2 -2 -2 -3 -3 -4 -4 -3 -4 -3 -3 -4 -5 -5 -6 -6 -5 -2 -6 -0 3 2 3 3 1 -0 3 3 3 2 2 4 3 4 1 -2 -3 -0 4 2 1 -1 -2
-2 -2 -2 -3 -2 -2 -2 -3 -3 -3 -3 -4 -3 -4 -4 -4 -5 -5 -6 -1 0 2 4 4 2 2 -0 0 -0 1 2 2 3 3 4 2 -2 1 3 1 2 2 0 -2
-1 -2 -2 -3 -2 -2 -2 -2 -2 -3 -4 -4 -4 -4 -5 -4 -3 -4 -6 -4 -2 -0 2 3 3 4 0 -0 1 -1 2 0 1 1 1 -4 -2 1 1 2 2 2 1 1
-1 -3 -3 -3 -2 -2 -2 -2 -3 -3 -2 -5 -5 -4 -4 -4 -5 -5 -5 -3 -2 -3 -3 -1 1 4 3 3 1 -1 -1 -2 -0 -0 -2 -2 -2 0 1 2 2 1 1 2
-4 -4 -3 -2 -1 -2 -3 -5 -5 -2 -3 -4 -4 -4 -5 -5 -4 -3 -4 -4 -3 -2 -3 -3 -2 1 1 3 2 2 -0 -1 -1 -1 -2 -1 -0 -1 -1 1 1 2 2 1
-4 -4 -3 -2 -2 -3 -6 -6 -4 -5 -4 -4 -5 -4 -5 -6 -5 -5 -4 -3 -3 -3 -4 -2 -2 -2 -1 -1 -0 0 -1 0 1 1 -2 -2 -2 -3 -2 1 1 1 1 1
-5 -4 -4 -3 -4 -5 -4 -3 -4 -4 -4 -5 -5 -6 -4 -4 -4 -5 -5 -5 -4 -4 -4 -4 -5 -5 -2 -3 -2 -3 -5 -3 1 1 -1 0 -0 -2 -1 0 1 1 2 1
-6 -6 -5 -5 -6 -4 -4 -4 -5 -4 -5 -5 -5 -5 -4 -3 -3 -4 -4 -4 -4 -4 -4 -3 -5 -6 -3 -2 -2 -7 -6 -8 -8 -3 1 2 1 0 0 1 2 2 1 1
-9 -7 -6 -7 -5 -4 -5 -5 -3 -3 -4 -5 -7 -5 -4 -2 -2 -2 -5 -5 -4 -4 -4 -4 -4 -5 -6 -4 -7 -8 -10 -9 -8 -6 -1 1 2 2 2 2 2 1 0 -0
-9 -7 -7 -6 -5 -5 -5 -3 -3 -3 -3 -4 -5 -4 -3 -2 -2 -2 -3 -4 -3 -5 -4 -4 -5 -4 -3 -6 -7 -6 -7 -4 -4 -5 0 1 2 1 1 0 0 0 -0 0
-9 -6 -6 -5 -5 -4 -3 -3 -2 -3 -4 -4 -4 -3 -4 -2 -2 -1 -2 -3 -4 -6 -4 -5 -4 -4 -7 -3 -1 -3 -2 -1 -1 -1 -1 1 0 0 0 -0 0 0 1 1
-10 -9 -7 -5 -3 -3 -2 -3 -3 -2 -3 -2 -2 -2 -3 -4 -1 -1 -1 -3 -3 -4 -4 -3 -3 1 1 -1 -1 -1 0 0 -0 -0 -0 0 -0 -0 0 1 1 1 1 1
-12 -10 -5 -4 -3 -2 -7 -7 -4 -4 -4 -2 -2 -2 -3 -3 -2 -1 -1 0 0 -1 -2 -1 2 1 -1 -1 -2 -1 -1 -1 -0 -0 0 1 1 1 1 1 1 1 1 1
-11 -11 -7 -5 -6 -12 -13 -11 -9 -8 -3 -3 -3 -4 -5 -3 -2 -1 0 1 1 -0 1 3 1 -0 -2 -2 -2 -2 -2 -1 -1 -0 -0 -1 -0 -1 -1 -1 -2 -2 -3 -2
-8 -10 -13 -9 -10 -11 -8 -9 -9 -5 -3 -6 -4 -4 -3 -3 -2 -0 1 -0 2 2 0 0 0 -1 -2 -2 -2 -2 -2 -2 -2 -2 -1 -1 -3 -5 -6 -8 -9 -10 -9 -8
-7 -8 -12 -10 -6 -2 -3 -4 -6 -7 -7 -6 -5 -4 -3 -3 -3 -1 0 2 1 1 -0 -1 -1 -1 -1 -2 -2 -3 -3 -3 -3 -3 -3 -2 -5 -9 -11 -13 -18 -17 -14 -12
-7 -7 -8 -6 -7 -8 -5 -5 -6 -6 -6 -7 -4 -5 -3 -3 -2 -1 -0 -0 -1 -2 -1 -1 -1 -2 -4 -1 -2 -3 -5 -8 -5 -4 -4 -4 -10 -18 -21 -22 -22 -21 -18 -17
-7 -6 -6 -5 -5 -6 -7 -6 -6 -6 -7 -8 -5 -7 -7 -5 -3 -3 -3 -3 -3 -1 -3 -6 -8 -10 -11 -8 -2 -2 -6 -12 -8 -3 -3 -3 -3 -3 -13 -20 -21 -20 -19 -18